Location: Azul
(36.7830°S, 59.8500°W)
Time: 09:06:51
(UTC-03:00)

YUBILEINY - Visible Passes

Search period start: 22 October 2021 00:00
Search period end: 01 November 2021 00:00
Orbit: 1477 x 1509 km, 82.5° (Epoch: 22 October)

Date Brightness Start Highest point End Pass type
(mag) Time Alt. Az. Time Alt. Az. Time Alt. Az.
22 Oct ? 19:33:37 10° S 19:41:58 43° ESE 19:50:09 10° NE visible
22 Oct ? 21:30:38 10° SSW 21:38:33 38° W 21:46:22 10° NNW visible
23 Oct ? 20:40:31 10° SSW 20:49:20 71° W 20:58:00 10° N visible
23 Oct ? 22:42:52 10° WSW 22:44:21 10° WSW 22:45:51 10° W visible
24 Oct ? 19:50:55 10° S 19:59:47 66° E 20:08:27 10° NNE visible
24 Oct ? 21:49:10 10° SSW 21:55:43 24° W 22:02:13 10° NW visible
25 Oct ? 20:58:27 10° SSW 21:06:43 46° W 21:14:53 10° NNW visible
26 Oct ? 20:08:30 10° S 20:17:25 84° W 20:26:10 10° N visible
26 Oct ? 22:08:44 10° SW 22:12:42 14° WSW 22:16:40 10° WNW visible
27 Oct ? 21:16:45 10° SSW 21:23:58 29° W 21:31:06 10° NW visible
28 Oct ? 20:26:20 10° SSW 20:34:52 55° W 20:43:18 10° NNW visible
29 Oct ? 21:35:45 10° SW 21:41:01 18° WSW 21:46:17 10° WNW visible
30 Oct ? 20:44:27 10° SSW 20:52:11 35° W 20:59:48 10° NNW visible
31 Oct ? 19:54:15 10° SSW 20:03:00 66° W 20:11:36 10° N visible
